Theta_e
331 329 327 324 325 326 326 329 330 326 328 333 334 338 335 338 343 344 345 343 345 343 342 342 343 344 344 345 347 348 349 350 350 351 352 353 355 357
326 324 322 320 319 318 319 320 324 329 326 331 331 331 329 329 333 334 339 340 342 341 341 341 341 342 341 341 342 344 345 346 347 347 348 349 350 353
324 322 320 318 313 313 315 315 314 316 322 322 325 328 325 323 323 328 328 327 339 340 337 336 335 336 335 336 335 334 336 341 342 344 345 347 348 349
319 319 316 313 312 312 311 311 311 311 313 313 315 318 324 321 323 320 319 319 331 330 329 332 328 328 327 326 325 327 330 333 336 337 337 340 343 345
317 316 313 311 311 310 311 311 311 310 310 310 309 313 316 316 317 319 318 316 321 325 325 325 325 324 324 324 324 323 321 322 325 328 331 332 335 337
313 314 313 312 312 312 312 312 310 309 309 308 308 310 311 313 315 313 313 315 315 317 317 321 320 319 321 321 323 322 319 319 319 319 322 323 326 329
313 313 313 312 314 313 312 312 311 309 307 307 306 307 307 308 309 311 311 311 313 317 313 313 316 321 320 319 320 319 319 318 319 319 318 318 320 321
314 315 316 323 321 320 318 315 312 311 309 307 307 306 307 308 311 310 309 307 306 313 311 311 314 315 318 320 320 319 318 318 319 320 319 318 319 319
316 316 315 317 323 317 317 315 312 312 313 311 309 307 308 311 311 310 308 307 307 310 311 309 314 313 317 317 320 322 320 317 318 319 318 318 317 316
314 315 316 316 317 318 313 311 312 311 310 309 310 310 310 312 312 311 310 309 310 311 311 308 312 312 316 318 317 321 320 319 317 317 316 315 312 312
310 311 315 315 314 317 313 312 312 309 310 312 314 316 316 317 316 314 310 308 307 308 311 310 312 312 314 315 317 316 316 314 313 313 315 314 311 310
308 310 311 315 315 317 314 311 308 308 307 309 311 311 310 311 313 315 312 307 307 306 311 309 311 312 308 313 313 316 314 311 310 310 312 311 309 317
307 309 309 312 312 312 313 311 308 310 310 310 308 309 310 310 311 311 311 310 308 307 313 312 311 311 310 309 311 313 313 314 314 313 309 308 308 310
309 308 309 309 309 309 311 312 311 313 311 309 308 309 310 310 311 312 312 309 310 310 315 315 310 310 308 307 307 311 312 313 314 313 314 311 309 310
310 310 309 308 308 310 311 310 311 310 308 307 308 309 311 312 313 311 311 312 311 311 312 313 311 311 308 306 307 308 309 312 314 313 314 314 314 316
311 307 307 309 309 310 308 307 307 307 307 307 308 311 311 310 309 310 308 308 307 308 314 315 313 310 308 308 308 308 309 307 312 313 314 314 314 315
306 305 305 305 306 307 306 306 307 308 308 310 308 307 306 306 307 307 306 304 301 302 302 306 312 313 310 309 307 308 309 308 310 311 311 310 312 313
305 305 306 305 304 304 304 305 308 308 307 307 307 307 305 305 304 303 301 298 297 298 298 300 301 304 307 309 312 307 308 308 309 309 309 308 309 312
304 306 304 304 304 305 305 306 307 307 306 307 307 306 304 303 300 298 298 298 297 297 297 298 297 296 295 299 308 312 308 308 307 306 307 307 308 310
303 303 304 305 305 306 306 307 305 305 307 307 305 304 302 299 299 297 296 296 296 295 294 295 295 296 295 296 299 307 308 309 307 306 306 308 311 310
306 306 307 307 307 307 307 305 303 305 306 305 304 302 300 299 298 297 297 296 296 295 293 293 296 300 299 298 300 303 307 307 310 307 307 305 307 308
310 308 308 307 307 306 306 304 306 306 304 303 302 301 298 296 297 298 297 296 296 296 296 297 298 297 297 298 298 301 305 308 308 309 308 308 308 304
308 308 308 308 307 306 306 307 306 305 303 302 301 298 297 295 297 297 298 297 297 297 299 300 302 300 298 299 301 301 303 304 305 304 307 309 309 309
Wind_Speed
6 6 4 4 3 3 3 1 0 2 1 2 3 5 6 5 10 8 9 10 6 9 7 6 8 4 4 11 15 19 19 17 18 17 17 18 18 18
4 6 5 2 4 4 4 3 2 1 2 3 3 3 6 6 9 8 9 12 9 1 1 4 6 8 7 2 2 7 11 12 11 13 15 16 16 17
5 5 4 4 5 5 5 4 6 3 3 2 3 5 5 8 8 8 8 9 8 11 13 9 11 9 10 10 7 5 4 5 7 7 9 12 14 15
4 5 5 3 4 4 4 6 6 5 3 4 3 4 5 8 7 7 8 8 6 15 16 14 14 13 11 12 13 14 9 9 8 8 6 6 7 9
4 5 4 3 3 3 4 4 3 3 4 3 4 2 2 4 4 5 8 7 5 12 11 11 11 11 9 8 10 11 12 13 9 9 7 5 6 8
3 3 4 4 4 4 4 4 3 3 3 3 2 2 2 3 2 4 6 3 3 3 6 5 5 3 3 5 4 7 7 8 9 12 10 3 5 8
3 2 2 2 3 3 2 2 2 2 2 2 2 2 2 3 4 3 2 4 3 2 3 3 3 1 3 3 4 5 1 4 6 12 9 4 8 7
2 3 3 5 4 4 3 4 1 1 2 1 1 1 2 2 2 3 3 4 4 1 4 5 3 4 3 3 7 9 8 7 6 8 13 14 11 9
3 3 4 5 6 4 2 3 3 3 3 2 2 2 2 2 2 4 3 3 4 5 3 5 2 4 3 2 8 6 10 9 2 5 3 7 11 10
2 2 4 5 5 5 3 3 4 4 4 3 5 6 7 7 6 4 3 5 5 6 4 4 1 3 3 3 6 4 7 6 9 10 4 7 4 5
2 3 3 3 6 8 5 5 5 6 5 8 9 12 12 14 11 4 6 4 3 3 3 2 2 3 2 4 3 5 4 2 3 7 6 5 7 6
2 3 6 6 5 3 4 4 6 7 7 9 9 8 8 9 12 10 7 7 5 4 3 5 3 3 3 2 4 3 4 5 7 8 7 8 8 5
1 3 3 6 6 6 5 5 8 8 12 8 8 8 8 7 6 6 8 7 6 8 5 5 5 4 5 4 3 5 5 5 4 4 6 9 8 5
2 2 4 8 8 8 7 11 13 12 8 8 8 8 7 7 6 5 5 7 8 11 8 9 5 7 6 6 6 4 5 5 5 6 5 5 7 7
3 5 7 8 10 10 12 13 11 6 6 6 7 7 5 6 6 5 5 6 8 9 9 9 9 9 8 8 5 6 5 4 5 6 6 5 5 5
4 3 5 9 10 10 9 6 5 5 6 6 6 6 5 3 6 6 7 8 8 9 8 7 10 10 9 9 9 9 9 7 4 5 5 4 5 5
1 2 3 3 6 6 5 5 4 4 4 2 4 6 5 5 6 4 4 5 7 9 10 10 10 9 10 12 9 9 9 9 8 7 6 7 7 7
2 3 5 5 6 7 6 7 5 3 2 4 6 7 7 6 4 4 5 5 7 8 9 9 10 10 8 9 15 9 8 8 7 6 5 7 8 6
4 5 5 6 7 6 5 4 4 3 4 5 6 6 5 3 4 5 5 7 8 9 10 10 10 8 9 9 8 21 9 7 5 4 6 8 9 7
3 5 6 6 6 5 4 3 3 4 5 6 5 4 3 4 6 5 6 7 7 7 9 8 7 8 7 5 6 3 9 7 6 6 6 6 7 5
2 3 3 4 4 4 3 3 2 4 6 4 4 4 4 5 5 5 7 10 11 6 8 9 8 15 5 6 6 3 5 15 11 6 3 6 7 5
2 3 3 3 4 3 3 2 3 5 4 4 5 3 4 5 6 7 6 7 7 6 8 8 8 4 3 4 7 8 6 3 6 12 9 9 5 5
2 3 4 4 3 1 1 3 4 4 3 4 3 4 4 5 6 6 7 7 7 7 7 7 6 2 5 6 8 5 6 2 1 2 8 13 13 15
Wind_Direction
70 62 58 48 53 46 50 27 193 315 271 32 360 10 0 9 16 19 8 352 251 177 166 189 191 175 245 235 239 224 229 227 223 219 217 219 223 225
80 79 74 57 57 45 45 40 18 323 302 29 36 344 357 358 15 22 25 28 34 131 222 276 202 142 124 104 25 253 245 240 234 222 216 212 213 217
74 82 71 55 54 47 43 39 39 16 343 352 6 1 22 11 9 20 21 30 37 56 65 64 78 83 80 73 65 51 356 253 237 207 219 212 205 210
127 107 88 75 59 52 50 48 40 26 29 6 340 346 24 5 1 20 13 15 49 58 62 61 62 67 75 67 54 42 30 310 257 222 204 170 185 200
126 133 129 100 75 60 59 66 55 50 51 41 349 323 325 10 354 7 12 5 28 57 56 64 67 69 56 54 80 53 41 4 340 291 219 198 223 235
123 123 141 155 141 136 104 101 100 74 55 40 12 333 320 333 348 357 356 358 355 38 35 49 30 4 112 110 43 58 37 31 7 329 311 289 243 245
128 132 180 194 175 168 143 154 110 70 42 27 14 335 334 341 354 342 317 330 311 330 338 354 342 274 260 244 184 170 193 342 3 313 304 315 264 240
168 224 243 248 221 222 212 191 154 36 19 354 319 317 291 279 283 321 321 334 329 144 343 318 324 315 320 242 239 211 193 222 248 288 300 304 290 290
231 246 260 246 226 221 277 34 331 319 258 234 234 243 270 236 288 300 310 308 281 294 321 293 239 284 289 292 316 227 202 201 289 280 271 267 261 258
57 319 277 289 266 244 238 271 277 291 286 256 236 256 243 261 235 260 289 291 274 274 214 259 255 268 293 264 279 139 130 163 168 190 266 310 326 289
14 352 327 310 297 257 207 244 284 291 298 276 269 266 262 255 242 244 253 255 283 267 188 254 259 277 277 273 263 245 286 312 331 305 287 270 290 300
319 314 339 337 353 233 216 244 277 279 296 302 306 289 274 275 261 236 245 247 246 272 193 206 216 222 275 243 279 233 227 260 279 293 281 299 307 292
321 314 319 312 305 289 254 250 249 273 290 288 292 293 293 284 270 218 214 228 236 248 244 204 222 208 224 247 242 251 252 267 253 264 267 274 280 266
235 255 267 279 281 272 268 258 262 277 287 292 294 292 294 289 290 275 225 221 230 240 269 212 242 224 225 230 246 240 244 247 247 253 256 271 270 268
236 255 275 278 273 273 262 274 282 276 275 271 272 279 283 287 293 288 280 246 245 243 247 234 238 245 239 243 239 229 236 234 222 254 258 254 255 261
280 293 277 273 270 275 296 286 279 277 267 270 283 291 292 300 306 312 310 321 317 309 312 274 239 231 237 235 241 239 230 228 202 209 218 252 260 249
267 269 278 287 306 318 310 302 299 287 271 274 296 306 302 303 315 347 345 332 314 313 313 312 300 264 242 247 243 238 235 228 228 230 221 250 251 248
246 273 291 299 305 310 311 315 314 326 352 329 320 320 316 322 328 333 326 312 302 301 305 316 311 305 263 242 228 240 224 226 226 209 204 248 260 244
242 274 285 300 299 298 299 299 295 328 326 324 323 321 322 325 324 315 314 311 304 304 303 309 304 280 294 277 259 211 224 215 212 195 208 218 251 243
259 288 294 295 294 295 310 294 302 321 335 329 326 324 323 305 308 306 306 297 294 292 293 292 286 283 277 326 320 324 217 222 206 224 222 225 240 291
297 275 275 287 300 316 300 287 304 326 325 317 314 311 312 310 294 295 294 296 296 292 291 293 287 290 289 294 255 260 252 218 234 213 177 217 237 240
302 318 316 320 312 302 291 301 319 328 321 318 318 312 325 304 296 299 290 290 292 288 285 286 294 271 245 243 283 303 295 244 234 209 191 238 235 244
344 325 327 321 321 311 301 321 315 306 305 311 308 308 304 288 294 286 287 288 286 290 292 301 308 266 252 248 243 259 286 304 231 186 234 229 238 251